sat.trackr.live / text

‹ back to catalog

STARLINK-31285

NORAD 59244 · 2024-049P

PAYLOAD ACTIVE UNKNOWN

§ Identity

Operator
Country
US
Launch date
2024-03-16
Launch site
AFETR
Launch vehicle
Mass (kg)
RCS (m²)

Purposes: comms

External: N2YO · Heavens-Above · Gunter

§ Orbital elements

Epoch: 2026-09-20T23:04:10.941600Z

Period
94.27 min
Inclination
42.9983°
Eccentricity
0.0001154
Mean motion
15.27578008 rev/d
Perigee alt
482.3 km
Apogee alt
483.8 km
Semi-major
6,861.2 km
B*
7.7566e-6
RAAN
120.4587°
Arg perigee
271.2766°
Mean anomaly
88.7954°
Rev number
14,226

§ Raw data

STARLINK-312851 59244U 24049P   26263.96123775 -.00000049  00000+0  77566-5 0  99912 59244  42.9983 120.4587 0001154 271.2766  88.7954 15.27578008142269

JSON: /api/v1/satellites/59244 · /tle

For live sub-satellite position, see the globe view (requires WebGL).

§ Visibility from observer

Set your observer location to see the next 7 days of passes ≥ 10°. The values pass through the URL so the page stays shareable.

No JS? Fill the form by hand. The geolocation button needs JavaScript.